Location: Duac?
(36.9744°N, 30.6500°E)
Time: 05:53:27
(UTC+00:00)

IKONOS-2 - Pass Details

Date: 05 August 2024
Orbit: 584 x 594 km, 98.2° (Epoch: 10 September)

Event Time Altitude Azimuth Distance (km) Brightness Sun altitude
Rises 17:44:43 0° 12° (NNE) 2,846 8.2 -8.9°
Reaches altitude 10° 17:46:54 10° 13° (NNE) 1,939 7.3 -9.3°
Maximum altitude 17:51:06 88° 103° (ESE) 601 4.5 -10.0°
Drops below altitude 10° 17:55:17 10° 193° (SSW) 1,919 6.9 -10.7°
Sets 17:57:25 0° 193° (SSW) 2,814 7.8 -11.1°
